TimeCDT,TemperatureF,Dew PointF,Humidity,Sea Level PressureIn,VisibilityMPH,Wind Direction,Wind SpeedMPH,Gust SpeedMPH,PrecipitationIn,Events,Conditions,WindDirDegrees,DateUTC
12:15 AM,69.8,68.0,94,29.96,2.5,Calm,Calm,-,N/A,,Clear,0,2013-06-17 05:15:00
12:53 AM,69.1,68.0,96,29.96,1.5,SW,4.6,-,N/A,,Clear,230,2013-06-17 05:53:00
1:53 AM,69.1,68.0,96,29.95,1.2,WSW,3.5,-,N/A,,Clear,250,2013-06-17 06:53:00
2:01 AM,68.0,66.2,94,29.96,0.2,SW,3.5,-,N/A,Fog,Fog,230,2013-06-17 07:01:00
2:11 AM,68.0,66.2,94,29.95,0.2,South,4.6,-,N/A,Fog,Fog,190,2013-06-17 07:11:00
2:53 AM,66.0,64.9,96,29.94,0.2,Calm,Calm,-,N/A,Fog,Fog,0,2013-06-17 07:53:00
3:05 AM,64.4,64.4,100,29.96,0.2,Calm,Calm,-,N/A,Fog,Fog,0,2013-06-17 08:05:00
3:53 AM,66.9,66.9,100,29.95,0.2,SW,3.5,-,N/A,Fog,Fog,230,2013-06-17 08:53:00
4:45 AM,64.4,64.4,100,29.95,0.2,NNW,3.5,-,N/A,Fog,Fog,340,2013-06-17 09:45:00
4:53 AM,64.9,64.9,100,29.94,0.2,North,3.5,-,N/A,Fog,Fog,360,2013-06-17 09:53:00
5:19 AM,66.2,66.2,100,29.95,0.2,Calm,Calm,-,N/A,Fog,Fog,0,2013-06-17 10:19:00
5:53 AM,64.9,64.9,100,29.95,0.2,Calm,Calm,-,N/A,Fog,Fog,0,2013-06-17 10:53:00
6:53 AM,66.9,66.9,100,29.94,0.1,Calm,Calm,-,N/A,Fog,Fog,0,2013-06-17 11:53:00
7:37 AM,69.8,69.8,100,29.97,0.2,Calm,Calm,-,N/A,Fog,Fog,0,2013-06-17 12:37:00
7:53 AM,70.0,70.0,100,29.96,1.0,Calm,Calm,-,N/A,,Mostly Cloudy,0,2013-06-17 12:53:00
8:06 AM,71.6,71.6,100,29.97,2.0,SSW,3.5,-,N/A,,Scattered Clouds,210,2013-06-17 13:06:00
8:16 AM,71.6,71.6,100,29.98,3.0,WSW,4.6,-,N/A,,Partly Cloudy,240,2013-06-17 13:16:00
8:53 AM,73.9,71.1,91,29.97,5.0,Calm,Calm,-,N/A,,Partly Cloudy,0,2013-06-17 13:53:00
9:53 AM,79.0,70.0,74,29.96,10.0,Calm,Calm,-,N/A,,Clear,0,2013-06-17 14:53:00
10:53 AM,81.0,70.0,69,29.95,10.0,Calm,Calm,-,N/A,,Clear,0,2013-06-17 15:53:00
11:53 AM,84.0,66.9,56,29.95,10.0,Variable,3.5,-,N/A,,Partly Cloudy,0,2013-06-17 16:53:00
12:53 PM,84.9,64.0,49,29.95,10.0,Calm,Calm,-,N/A,,Mostly Cloudy,0,2013-06-17 17:53:00
1:53 PM,86.0,61.0,43,29.94,10.0,Calm,Calm,-,N/A,,Partly Cloudy,0,2013-06-17 18:53:00
2:53 PM,84.9,59.0,41,29.91,10.0,Calm,Calm,-,N/A,,Clear,0,2013-06-17 19:53:00
3:53 PM,86.0,57.9,38,29.89,10.0,Calm,Calm,-,N/A,,Clear,0,2013-06-17 20:53:00
4:53 PM,84.9,57.9,40,29.90,10.0,Calm,Calm,-,N/A,,Clear,0,2013-06-17 21:53:00
5:53 PM,82.9,59.0,44,29.88,10.0,Calm,Calm,-,N/A,,Clear,0,2013-06-17 22:53:00
6:53 PM,82.0,63.0,52,29.89,10.0,Calm,Calm,-,N/A,,Clear,0,2013-06-17 23:53:00
7:53 PM,79.0,64.9,62,29.90,10.0,Calm,Calm,-,N/A,,Clear,0,2013-06-18 00:53:00
8:53 PM,75.0,66.9,76,29.89,10.0,WSW,4.6,-,N/A,,Clear,250,2013-06-18 01:53:00
9:53 PM,71.1,66.9,87,29.92,10.0,SSW,12.7,-,N/A,,Clear,200,2013-06-18 02:53:00
10:53 PM,69.1,64.0,84,29.91,10.0,SW,11.5,-,N/A,,Clear,230,2013-06-18 03:53:00
11:38 PM,68.0,64.4,88,29.92,10.0,WSW,9.2,-,N/A,,Partly Cloudy,240,2013-06-18 04:38:00
11:53 PM,68.0,64.9,90,29.91,10.0,WSW,9.2,-,N/A,,Clear,250,2013-06-18 04:53:00